IW1PPB-3 Loano IT current weather conditions

sailwx.info

Wind from 355

Air temperature 26.1° C
Dewpoint 15.8° C

Last reported at 2020-Aug-06 21:03 UTC.
Time now 2020-Aug-06 22:14 UTC

Location: N 44°07' E 008°15'.
View on Google Maps.

See reports from other nearby stations

  
Tides and Currents Weather Stations Pressure Air Temp Water Temp Dewpoint Dewpoint Depression Visibility Wind Speed Wind Dir Waves Ship Positions
date/time (UTC)wind fromknots sea level pressurealtimeterstation pressurevisibilityair tempwater tempwave heightnotes
2020-Aug-06 21:03 355 26.1
2020-Aug-06 20:53 331 26.1
2020-Aug-06 20:43 317 26.7
2020-Aug-06 20:33 319 26.7
2020-Aug-06 20:23 300 26.1
2020-Aug-06 20:13 294 26.1
2020-Aug-06 20:03 289 26.1
2020-Aug-06 19:53 289 26.7
2020-Aug-06 19:43 298 26.7
2020-Aug-06 19:33 319 26.7
2020-Aug-06 19:23 286 26.7
2020-Aug-06 19:13 309 27.2
2020-Aug-06 19:03 294 27.2
2020-Aug-06 18:53 294 27.2
2020-Aug-06 18:43 294 27.8
2020-Aug-06 18:33 294 27.8
2020-Aug-06 18:23 294 28.3
2020-Aug-06 18:13 294 28.3
2020-Aug-06 18:03 306 28.3
2020-Aug-06 17:53 302 29.4
2020-Aug-06 17:43 323 29.4
2020-Aug-06 17:33 192 28.9
2020-Aug-06 17:23 209 28.9
2020-Aug-06 17:13 195 28.9
2020-Aug-06 17:03 215 28.9
2020-Aug-06 16:53 188 28.9
2020-Aug-06 16:43 188 28.9
2020-Aug-06 16:33 194 28.9
2020-Aug-06 16:23 211 28.9
2020-Aug-06 16:13 178 28.9
2020-Aug-06 16:03 182 28.9
2020-Aug-06 15:53 177 28.9
2020-Aug-06 15:43 184 28.9
2020-Aug-06 15:33 188 28.9
2020-Aug-06 15:23 185 28.9
2020-Aug-06 15:13 172 28.9
2020-Aug-06 15:03 186 29.4
2020-Aug-06 14:53 177 28.9
2020-Aug-06 14:43 155 28.9
2020-Aug-06 14:33 165 28.9
2020-Aug-06 14:23 184 28.3
2020-Aug-06 14:13 184 0 gusting 0 28.9
2020-Aug-06 14:03 165 28.9
2020-Aug-06 13:53 185 28.9
2020-Aug-06 13:43 189 28.3
2020-Aug-06 13:33 186 28.3
2020-Aug-06 13:23 222 28.3
2020-Aug-06 13:13 169 28.3
2020-Aug-06 13:03 193 28.3
2020-Aug-06 12:53 209 27.8
2020-Aug-06 12:43 187 4 gusting 4 27.8
2020-Aug-06 12:33 181 27.8
2020-Aug-06 12:23 182 27.8
2020-Aug-06 12:13 158 27.8
2020-Aug-06 12:03 190 27.8
2020-Aug-06 11:53 176 27.8
2020-Aug-06 11:43 173 27.8
2020-Aug-06 11:33 158 27.8
2020-Aug-06 11:23 175 27.8
2020-Aug-06 11:13 186 27.8
2020-Aug-06 11:03 192 28.3
2020-Aug-06 10:53 191 27.8
2020-Aug-06 10:43 204 27.8
2020-Aug-06 10:33 194 27.2
2020-Aug-06 10:23 233 27.8
2020-Aug-06 10:13 198 27.8
2020-Aug-06 10:03 175 27.8
2020-Aug-06 09:53 198 27.8
2020-Aug-06 09:43 175 27.8
2020-Aug-06 09:33 182 28.3
2020-Aug-06 09:23 186 27.8
2020-Aug-06 09:13 184 27.8
2020-Aug-06 09:03 213 27.2
2020-Aug-06 08:53 188 27.2
2020-Aug-06 08:43 194 27.2
2020-Aug-06 08:33 179 27.2
2020-Aug-06 08:23 138 28.9
2020-Aug-06 08:13 217 28.3
2020-Aug-06 08:03 232 28.3
2020-Aug-06 07:53 248 27.8
2020-Aug-06 07:43 300 27.8
2020-Aug-06 07:33 256 27.2
2020-Aug-06 07:23 247 27.2
2020-Aug-06 07:13 187 26.7
2020-Aug-06 07:03 189 26.1
2020-Aug-06 06:53 148 26.1
2020-Aug-06 06:43 140 26.1
2020-Aug-06 06:33 160 26.1
2020-Aug-06 06:23 311 25.6
2020-Aug-06 06:13 309 24.4
2020-Aug-06 06:03 324 24.4
2020-Aug-06 05:53 322 23.9
2020-Aug-06 05:43 294 23.9
2020-Aug-06 05:33 292 23.3
2020-Aug-06 05:23 296 23.3
2020-Aug-06 05:13 306 22.8
2020-Aug-06 05:03 301 22.8
2020-Aug-06 04:53 325 22.8
2020-Aug-06 04:43 278 22.8
2020-Aug-06 04:33 300 22.8
2020-Aug-06 04:23 277 22.2
2020-Aug-06 04:13 301 22.2
2020-Aug-06 04:03 310 21.7
2020-Aug-06 03:53 288 21.7
2020-Aug-06 03:43 317 21.1
2020-Aug-06 03:33 015 21.1
2020-Aug-06 03:23 355 21.7
2020-Aug-06 03:13 322 22.2
2020-Aug-06 03:03 319 22.2
2020-Aug-06 02:53 323 22.2
2020-Aug-06 02:43 299 22.2
2020-Aug-06 02:33 310 22.2
2020-Aug-06 02:23 282 22.2
2020-Aug-06 02:13 274 22.2
2020-Aug-06 02:03 324 22.2
2020-Aug-06 01:53 313 22.2
2020-Aug-06 01:43 335 23.3
2020-Aug-06 01:33 311 22.8
2020-Aug-06 01:23 311 22.8
2020-Aug-06 01:13 305 22.8
2020-Aug-06 01:03 294 23.3
2020-Aug-06 00:53 296 22.8
2020-Aug-06 00:50 306 22.8
2020-Aug-06 00:43 302 22.8
2020-Aug-06 00:40 302 22.8
2020-Aug-06 00:33 302 23.3
2020-Aug-06 00:30 328 23.3
2020-Aug-06 00:23 275 23.3
2020-Aug-06 00:20 307 23.3
2020-Aug-06 00:13 267 23.3
2020-Aug-06 00:10 335 23.9
2020-Aug-06 00:03 311 23.9
2020-Aug-06 00:00 317 23.9
2020-Aug-05 23:53 295 23.9
2020-Aug-05 23:50 302 23.9
2020-Aug-05 23:43 310 23.9
2020-Aug-05 23:40 307 23.3
2020-Aug-05 23:33 290 23.3
2020-Aug-05 23:30 288 23.3
2020-Aug-05 23:23 290 23.3
2020-Aug-05 23:20 291 23.3
2020-Aug-05 23:13 327 23.3
2020-Aug-05 23:10 290 23.3
2020-Aug-05 23:03 299 23.9
2020-Aug-05 23:00 299 23.9
2020-Aug-05 22:53 299 23.9
2020-Aug-05 22:50 321 23.9
2020-Aug-05 22:43 355 23.9
2020-Aug-05 22:39 326 23.9
2020-Aug-05 22:33 286 23.9
2020-Aug-05 22:29 290 23.9
2020-Aug-05 22:23 290 23.9
2020-Aug-05 22:19 265 23.9
2020-Aug-05 22:13 315 23.9
2020-Aug-05 22:09 315 24.4
2020-Aug-05 22:03 307 23.9
2020-Aug-05 21:59 300 23.9
2020-Aug-05 21:53 285 23.9
2020-Aug-05 21:49 310 23.9
2020-Aug-05 21:43 320 23.9
2020-Aug-05 21:39 296 23.9
2020-Aug-05 21:33 296 23.9
2020-Aug-05 21:29 292 23.9
2020-Aug-05 21:23 299 24.4
2020-Aug-05 21:19 321 24.4
2020-Aug-05 21:13 277 24.4
2020-Aug-05 21:09 277 24.4
2020-Aug-05 21:03 286 24.4
2020-Aug-05 20:59 286 25.0
2020-Aug-05 20:53 317 25.0
2020-Aug-05 20:49 347 25.0
2020-Aug-05 20:43 276 25.0
2020-Aug-05 20:39 284 25.0
2020-Aug-05 20:33 311 25.0
2020-Aug-05 20:29 026 25.0
2020-Aug-05 20:23 292 25.0
2020-Aug-05 20:19 306 25.0
2020-Aug-05 20:13 300 25.0
2020-Aug-05 20:09 277 25.0
2020-Aug-05 20:03 288 25.0
2020-Aug-05 19:59 290 25.0
2020-Aug-05 19:53 284 25.0
2020-Aug-05 19:49 275 25.0
2020-Aug-05 19:43 285 25.0
2020-Aug-05 19:39 300 25.0
2020-Aug-05 19:33 291 25.0
2020-Aug-05 19:29 287 25.0
2020-Aug-05 19:23 315 25.0
2020-Aug-05 19:19 298 25.0
2020-Aug-05 19:13 300 25.0
2020-Aug-05 19:09 291 25.0
2020-Aug-05 19:03 300 25.0
2020-Aug-05 18:59 303 25.0
2020-Aug-05 18:53 277 25.0
2020-Aug-05 18:49 300 25.0
2020-Aug-05 18:43 281 25.0
2020-Aug-05 18:39 279 25.6
2020-Aug-05 18:33 291 25.6
2020-Aug-05 18:29 318 25.6
2020-Aug-05 18:23 306 25.6
2020-Aug-05 18:19 299 26.1
2020-Aug-05 18:13 355 26.1
2020-Aug-05 18:09 315 26.7
2020-Aug-05 18:03 334 27.2
2020-Aug-05 17:59 346 27.8
2020-Aug-05 17:53 282 27.8
2020-Aug-05 17:49 202 27.2
2020-Aug-05 17:43 183 27.2
2020-Aug-05 17:39 198 27.2
2020-Aug-05 17:33 200 27.2
2020-Aug-05 17:29 195 27.2
2020-Aug-05 17:23 183 27.2
2020-Aug-05 17:19 207 27.2
2020-Aug-05 17:13 182 27.2
2020-Aug-05 17:09 206 27.2
2020-Aug-05 17:03 190 27.2
2020-Aug-05 16:59 194 27.2
2020-Aug-05 16:53 184 27.2
2020-Aug-05 16:49 186 27.2
2020-Aug-05 16:43 192 27.2
2020-Aug-05 16:39 201 27.2
2020-Aug-05 16:33 183 27.8
2020-Aug-05 16:29 184 27.8
2020-Aug-05 16:23 185 27.8
2020-Aug-05 16:19 174 27.8
2020-Aug-05 16:13 179 27.8
2020-Aug-05 16:09 180 27.8
2020-Aug-05 16:03 194 27.8
2020-Aug-05 15:59 182 27.8
2020-Aug-05 15:53 167 27.8
2020-Aug-05 15:49 182 27.8
2020-Aug-05 15:43 168 27.8
2020-Aug-05 15:39 178 27.8
2020-Aug-05 15:33 165 27.8
2020-Aug-05 15:29 184 27.8
2020-Aug-05 15:23 183 27.8
2020-Aug-05 15:19 190 27.8
2020-Aug-05 15:13 184 27.8
2020-Aug-05 15:09 176 27.8
2020-Aug-05 15:03 203 27.8
2020-Aug-05 14:59 188 27.8
2020-Aug-05 14:53 186 27.8
2020-Aug-05 14:49 196 27.2
2020-Aug-05 14:43 190 27.2
2020-Aug-05 14:39 167 4 gusting 7 26.7
2020-Aug-05 14:33 174 26.7
2020-Aug-05 14:29 179 0 gusting 13 26.7
2020-Aug-05 14:23 196 10 gusting 12 26.7
2020-Aug-05 14:19 199 27.2
2020-Aug-05 14:13 185 27.2
2020-Aug-05 14:09 179 27.2
2020-Aug-05 14:03 180 27.2
2020-Aug-05 13:59 192 27.2
2020-Aug-05 13:53 176 27.2
2020-Aug-05 13:49 169 27.8
2020-Aug-05 13:43 178 28.3
2020-Aug-05 13:39 183 28.3
2020-Aug-05 13:33 144 28.3
2020-Aug-05 13:28 127 28.3
2020-Aug-05 13:23 128 28.3
2020-Aug-05 13:18 071 28.3
2020-Aug-05 13:13 144 28.3
2020-Aug-05 13:08 047 28.3
2020-Aug-05 13:03 124 28.3
2020-Aug-05 12:58 132 28.9
2020-Aug-05 12:53 150 28.9
2020-Aug-05 12:48 117 28.9
2020-Aug-05 12:43 113 28.9
2020-Aug-05 12:38 084 29.4
2020-Aug-05 12:33 080 29.4
2020-Aug-05 12:28 051 6 gusting 13 29.4
2020-Aug-05 12:23 013 1 gusting 1 29.4
2020-Aug-05 12:18 057 6 gusting 13 29.4
2020-Aug-05 12:13 019 29.4
2020-Aug-05 12:08 030 1 gusting 13 29.4
2020-Aug-05 12:03 069 29.4
2020-Aug-05 11:58 025 29.4
2020-Aug-05 11:53 046 29.4
2020-Aug-05 11:48 050 28.9
2020-Aug-05 11:43 019 28.9
2020-Aug-05 11:38 040 29.4
2020-Aug-05 11:33 346 29.4
2020-Aug-05 11:28 331 28.9
2020-Aug-05 11:23 065 28.9
2020-Aug-05 11:18 071 28.9
2020-Aug-05 11:13 067 28.9
2020-Aug-05 11:08 021 28.9
2020-Aug-05 11:03 028 28.9
2020-Aug-05 10:58 038 28.9
2020-Aug-05 10:53 072 28.9
2020-Aug-05 10:48 027 28.9
2020-Aug-05 10:43 058 28.9
2020-Aug-05 10:38 013 28.3
2020-Aug-05 10:33 345 28.3
2020-Aug-05 10:28 020 28.3
2020-Aug-05 10:23 350 28.3
2020-Aug-05 10:18 023 28.3
2020-Aug-05 10:13 068 28.3
2020-Aug-05 10:08 019 28.3
2020-Aug-05 10:03 083 28.3
2020-Aug-05 09:58 026 6 gusting 13 28.3
2020-Aug-05 09:53 060 28.3
2020-Aug-05 09:48 027 28.3
2020-Aug-05 09:43 044 28.3
2020-Aug-05 09:38 026 28.3
2020-Aug-05 09:33 050 28.3
2020-Aug-05 09:28 052 28.3
2020-Aug-05 09:23 047 6 gusting 6 28.3
2020-Aug-05 09:18 047 28.3
2020-Aug-05 09:13 038 27.8
2020-Aug-05 09:08 036 28.3
2020-Aug-05 09:03 350 28.3
2020-Aug-05 08:58 355 28.3
2020-Aug-05 08:53 346 27.8
2020-Aug-05 08:48 271 27.8
2020-Aug-05 08:43 225 27.8
2020-Aug-05 08:38 270 27.8
2020-Aug-05 08:33 273 27.8
2020-Aug-05 08:28 252 27.8
2020-Aug-05 08:23 252 27.8
2020-Aug-05 08:18 151 27.8
2020-Aug-05 08:13 238 27.8
2020-Aug-05 08:08 271 27.2
2020-Aug-05 08:04 271 27.2
2020-Aug-05 07:58 267 27.2
2020-Aug-05 07:53 346 1 gusting 1 27.2
2020-Aug-05 07:48 346 27.2
2020-Aug-05 07:43 273 27.2
2020-Aug-05 07:38 252 27.2
2020-Aug-05 07:33 025 27.2
2020-Aug-05 07:28 263 27.2
2020-Aug-05 07:23 285 27.2
2020-Aug-05 07:18 263 26.7
2020-Aug-05 07:13 273 26.1
2020-Aug-05 07:08 273 26.7
2020-Aug-05 07:03 272 26.7
2020-Aug-05 06:58 299 26.1
2020-Aug-05 06:53 310 26.1
2020-Aug-05 06:48 219 25.6
2020-Aug-05 06:43 235 25.0
2020-Aug-05 06:38 233 25.0
2020-Aug-05 06:33 217 25.0
2020-Aug-05 06:28 270 25.0
2020-Aug-05 06:23 279 25.0
2020-Aug-05 06:18 269 25.0
2020-Aug-05 06:13 276 24.4
2020-Aug-05 06:08 247 24.4
2020-Aug-05 06:03 298 24.4
2020-Aug-05 05:58 300 24.4
2020-Aug-05 05:53 280 24.4
2020-Aug-05 05:48 298 24.4
2020-Aug-05 05:43 301 24.4
2020-Aug-05 05:38 289 24.4
2020-Aug-05 05:33 332 24.4
2020-Aug-05 05:28 321 24.4
2020-Aug-05 05:23 252 24.4
2020-Aug-05 05:18 193 24.4
2020-Aug-05 05:13 200 24.4
2020-Aug-05 05:08 271 23.9
2020-Aug-05 05:03 246 23.9
2020-Aug-05 04:58 269 23.3
2020-Aug-05 04:53 242 22.8
2020-Aug-05 04:48 262 22.8
2020-Aug-05 04:43 266 22.8
2020-Aug-05 04:38 270 22.8
2020-Aug-05 04:33 291 22.8
2020-Aug-05 04:28 277 22.8
2020-Aug-05 04:23 269 22.8
2020-Aug-05 04:18 264 23.3
2020-Aug-05 04:13 248 23.3
2020-Aug-05 04:08 286 23.3
2020-Aug-05 04:03 313 23.3
2020-Aug-05 03:58 295 23.3
2020-Aug-05 03:53 298 23.3
2020-Aug-05 03:48 346 23.3
2020-Aug-05 03:43 346 23.3
2020-Aug-05 03:38 344 23.3
2020-Aug-05 03:33 317 23.3
2020-Aug-05 03:28 299 23.3
2020-Aug-05 03:23 321 23.3
2020-Aug-05 03:18 284 23.3
2020-Aug-05 03:13 312 23.3
2020-Aug-05 03:08 334 23.3
2020-Aug-05 03:03 302 23.3
2020-Aug-05 02:58 261 23.9
2020-Aug-05 02:53 301 23.9
2020-Aug-05 02:48 335 24.4
2020-Aug-05 02:43 315 24.4
2020-Aug-05 02:38 319 23.9
2020-Aug-05 02:33 009 23.9
2020-Aug-05 02:28 323 24.4
2020-Aug-05 02:23 355 24.4
2020-Aug-05 02:18 350 24.4
2020-Aug-05 02:13 350 24.4
2020-Aug-05 02:08 360 25.0
2020-Aug-05 02:03 012 25.0
2020-Aug-05 01:58 345 25.0
2020-Aug-05 01:53 355 25.0
2020-Aug-05 01:47 344 25.0
2020-Aug-05 01:43 344 25.0
2020-Aug-05 01:37 011 6 gusting 12 25.0
2020-Aug-05 01:33 015 25.0
2020-Aug-05 01:27 005 24.4
2020-Aug-05 01:23 262 24.4
2020-Aug-05 01:17 287 24.4
2020-Aug-05 01:13 276 24.4
2020-Aug-05 01:07 327 24.4
2020-Aug-05 01:03 300 24.4
2020-Aug-05 00:57 360 24.4
2020-Aug-05 00:53 326 25.0
2020-Aug-05 00:47 355 25.0
2020-Aug-05 00:43 360 25.0
2020-Aug-05 00:37 333 25.6
2020-Aug-05 00:33 355 25.6
2020-Aug-05 00:27 309 25.6
2020-Aug-05 00:23 350 25.6
2020-Aug-05 00:17 314 25.6
2020-Aug-05 00:13 340 25.6
2020-Aug-05 00:07 030 25.0
2020-Aug-05 00:03 325 25.0
2020-Aug-04 23:57 351 25.0
2020-Aug-04 23:53 351 25.0
2020-Aug-04 23:47 292 25.6
2020-Aug-04 23:43 334 25.0
2020-Aug-04 23:37 312 25.0
2020-Aug-04 23:33 005 25.0
2020-Aug-04 23:27 342 24.4
2020-Aug-04 23:23 314 24.4
2020-Aug-04 23:17 327 25.0
2020-Aug-04 23:13 340 25.0
2020-Aug-04 23:07 303 24.4
2020-Aug-04 23:03 319 23.9
2020-Aug-04 22:57 317 23.9
2020-Aug-04 22:53 319 23.9
2020-Aug-04 22:47 348 23.9
2020-Aug-04 22:43 290 23.9
2020-Aug-04 22:37 309 24.4
2020-Aug-04 22:33 306 24.4
2020-Aug-04 22:27 304 24.4
2020-Aug-04 22:23 293 24.4
2020-Aug-04 22:17 313 25.0
2020-Aug-04 22:13 312 25.0
2020-Aug-04 22:07 344 25.6
2020-Aug-04 22:03 336 25.6